Weather History for KAMW - January, 2014

Change the Weather History Date:

Sunday, January 12, 2014

  Actual Average Record
Temperature  
Mean Temperature 29 °F 19 °F  
Max Temperature 42 °F 29 °F 48 °F (2006)
Min Temperature 16 °F 10 °F -9 °F (1997)
Degree Days  
Heating Degree Days 36 46  
Month to date heating degree days 662 546  
Since 1 July heating degree days 3525 3300  
Cooling Degree Days 0 0  
Month to date cooling degree days 0 0  
Year to date cooling degree days 0 0  
Moisture  
Dew Point 28 °F    
Average Humidity 76    
Maximum Humidity 92    
Minimum Humidity 60    
Precipitation  
Precipitation 0.00 in 0.01 in 0.47 in (1993)
Month to date precipitation T 0.16  
Sea Level Pressure  
Sea Level Pressure 29.58 in    
Wind  
Wind Speed 9 mph (SW)    
Max Wind Speed 17 mph    
Max Gust Speed 24 mph    
Visibility 10 miles    
Events      
T = Trace of Precipitation, MM = Missing Value Source: NWS Daily Summary

Daily Weather History Graph

Daily Weather History Graph

Search for Another Location

Airport or City:

Trip Planner

Search our weather history database for the weather conditions in past years. The results will help you decide how hot, cold, wet, or windy it might be!

Date:

Astronomy

Jan. 12, 2014 Rise Set
Actual Time 7:41 AM CST 5:04 PM CST
Civil Twilight 7:10 AM CST 5:35 PM CST
Nautical Twilight 6:35 AM CST 6:10 PM CST
Astronomical Twilight 6:01 AM CST 6:44 PM CST
Moon 2:33 PM CST (1/12) 4:40 AM CST (1/12)
Length of Visible Light 10h 25m
Length of Day
9h 23m
Waxing Gibbous, 90% of the Moon is Illuminated
Jan 12
Waxing Gibbous
Jan 15
Full
Jan 23
Last Quarter
Jan 30
New
Feb 6
First Quarter

Hourly Weather History & Observations

Time (CST) Temp. Windchill Dew Point Humidity Pressure Visibility Wind Dir Wind Speed Gust Speed Precip Events Conditions
12:53 AM 19.0 °F 11.1 °F 17.1 °F 92% 29.76 in 7.0 mi SSE 5.8 mph - N/A   Clear
1:53 AM 19.0 °F 12.3 °F 17.1 °F 92% 29.74 in 7.0 mi ESE 4.6 mph - N/A   Clear
2:53 AM 21.9 °F 14.5 °F 19.9 °F 92% 29.72 in 9.0 mi SE 5.8 mph - N/A   Clear
3:53 AM 24.1 °F 15.2 °F 21.9 °F 91% 29.68 in 10.0 mi SSE 8.1 mph - N/A   Clear
4:53 AM 30.0 °F 21.1 °F 25.0 °F 82% 29.63 in 10.0 mi South 10.4 mph - N/A   Clear
5:53 AM 33.1 °F 23.4 °F 26.1 °F 75% 29.61 in 10.0 mi South 13.8 mph - N/A   Clear
6:53 AM 34.0 °F 23.8 °F 26.1 °F 73% 29.55 in 10.0 mi South 16.1 mph 21.9 mph N/A   Clear
7:53 AM 34.0 °F 27.2 °F 26.1 °F 73% 29.58 in 10.0 mi South 8.1 mph - N/A   Clear
8:53 AM 37.9 °F 31.5 °F 27.0 °F 65% 29.56 in 10.0 mi South 9.2 mph - N/A   Clear
9:53 AM 39.9 °F 32.9 °F 28.0 °F 63% 29.55 in 10.0 mi SSW 11.5 mph - N/A   Clear
10:53 AM 41.0 °F 35.2 °F 28.0 °F 60% 29.54 in 10.0 mi SSW 9.2 mph - N/A   Clear
11:53 AM 41.0 °F 33.5 °F 30.0 °F 65% 29.50 in 10.0 mi SSW 13.8 mph - N/A   Clear
12:53 PM 41.0 °F 36.4 °F 30.9 °F 67% 29.49 in 10.0 mi SW 6.9 mph - N/A   Clear
1:53 PM 41.0 °F 34.7 °F 32.0 °F 70% 29.48 in 10.0 mi SW 10.4 mph - N/A   Clear
2:53 PM 39.9 °F 34.5 °F 33.1 °F 77% 29.48 in 10.0 mi SW 8.1 mph - N/A   Clear
3:53 PM 41.0 °F - 34.0 °F 76% 29.52 in 10.0 mi Calm Calm - N/A   Clear
4:53 PM 37.0 °F 31.6 °F 32.0 °F 82% 29.55 in 10.0 mi West 6.9 mph - N/A   Clear
5:53 PM 37.0 °F 31.6 °F 30.9 °F 79% 29.56 in 10.0 mi West 6.9 mph - N/A   Clear
6:53 PM 39.0 °F 34.0 °F 30.9 °F 73% 29.55 in 10.0 mi WNW 6.9 mph - N/A   Mostly Cloudy
7:53 PM 37.9 °F 33.5 °F 32.0 °F 79% 29.57 in 10.0 mi West 5.8 mph - N/A   Overcast
8:53 PM 39.0 °F 31.8 °F 32.0 °F 76% 29.57 in 10.0 mi NW 11.5 mph - N/A   Overcast
9:53 PM 37.9 °F 30.9 °F 32.0 °F 79% 29.59 in 10.0 mi NW 10.4 mph - N/A   Mostly Cloudy
10:53 PM 37.9 °F 32.1 °F 32.0 °F 79% 29.60 in 10.0 mi NW 8.1 mph - N/A   Overcast
11:53 PM 37.9 °F 32.1 °F 30.9 °F 76% 29.60 in 10.0 mi WNW 8.1 mph - N/A   Overcast